www.pogodaiklimat.ru

Погода и климат >> Архив погоды >> Аргентина >> Ла-Риоха


ПОГОДА в Ла-Риохе

  • Прогноз погоды в Ла-Риохе
  • Монитор погоды в Ла-Риохе

АРХИВ ПОГОДЫ в Ла-Риохе

Время (UTC), дата Ветер
(напр.,м/с)
 
Видим.   Явления Облачность Т
(С)
Тd
(С)
f
(%)
Тe
(С)
Тes
(С)
Комфортность P
(гПа)
Po
(гПа)
Тmin
(С)
Tmax
(С)
R
(мм)
R24
(мм)
S
(см)
03 17.03 ЮВ 2 10 км в посл. час гроза {морось} 10/10 1200 м
[Cb cap Ac As]
+19.1 +18.8 98 +22 +22 комфорт 1013.8 964.4
06 17.03 штиль 0 10 км осадки на расстоянии {морось} 10/10 1050 м
[Cu Sc]
+19.0 +18.7 98 +21 +21 комфорт 1012.2 963.4 5
09 17.03 ЮВ 4 5000 м дождь 10/10 600 м
[Frnb]
+16.0 +16.0 100 +15 +15 1013.3 964.2
12 17.03 СЗ 2 10 км осадки на расстоянии {морось} 9/9 450 м
[Frnb]
+16.0 +16.0 100 +16 +16 1014.2 964.9 +15.5 +19.2 15
15 17.03 С 3 20 км 5/5 1500 м
[Cu Sc]
+21.6 +15.1 67 +25 +31 комфорт 1012.5 963.8
18 17.03 ЮВ 2 20 км 8/6 1500 м
[Cu Sc As trans]
+25.1 +15.3 55 +28 +32 жарко 1009.7 961.3 1
21 17.03 штиль 0 20 км 5/5 1500 м
[Cu Sc]
+26.2 +15.5 52 +29 +31 жарко 1007.6 959.2
00 18.03 штиль 0 20 км ясно +19.6 +16.9 84 +22 +22 комфорт 1009.4 960.4 +16.0 +26.5
03 18.03 С 2 20 км ясно +16.7 +15.2 91 +17 +17 1010.7 961.8
06 18.03 З 2 20 км ясно +16.0 +14.7 92 +16 +16 1009.4 960.8
09 18.03 З 2 20 км ясно +15.6 +14.1 91 +16 +16 1009.0 960.5
12 18.03 В 2 20 км ясно +16.8 +15.1 90 +17 +20 1010.3 961.3 +14.3 +19.7 0.9
15 18.03 В 1 20 км ясно +24.7 +16.7 61 +28 +45 душно 1009.9 961.4
18 18.03 ЮВ 1 20 км 4/4 1500 м
[Cu hum]
+27.8 +17.7 54 +32 +42 душно 1006.5 958.3
21 18.03 С 2 20 км 3/3 1500 м
[Cu hum]
+29.2 +15.7 44 +32 +34 душно 1003.3 955.3
00 19.03 З 2 20 км 3/3 1500 м
[Sc]
+23.8 +18.9 74 +29 +29 душно 1005.1 956.6 +16.8 +29.2
03 19.03 З 2 20 км ясно +20.4 +16.9 80 +24 +24 комфорт 1005.8 957.7
06 19.03 ЮЗ 5 20 км ясно +20.3 +15.9 76 +23 +23 комфорт 1006.7 958.8
09 19.03 ЮЗ 3 20 км ясно +18.6 +16.3 86 +20 +20 1008.3 960.3
12 19.03 Ю 4 20 км 4/4 1500 м
[Sc]
+20.8 +16.6 77 +25 +26 комфорт 1010.8 962.5 +18.4 +23.8
15 19.03 Ю 4 20 км 9/9 1050 м
[Cu Sc]
+24.2 +17.3 65 +28 +29 душно 1014.5 966.0
18 19.03 Ю 5 20 км 9/9 1500 м
[Cu Sc]
+25.4 +15.1 53 +28 +29 жарко 1010.8 962.6
21 19.03 Ю 4 20 км 9/9 1500 м
[Cu Sc]
+22.4 +11.3 49 +25 +25 комфорт 1012.9 964.2
00 20.03 Ю 3 20 км 10/10 1500 м
[Sc]
+20.4 +6.9 42 +22 +22 комфорт 1017.7 968.8 +20.4 +25.7
03 20.03 ЮЗ 4 15 км осадки на расстоянии 10/10 1500 м
[Sc]
+19.2 +6.9 45 +20 +20 1021.4 972.4
06 20.03 СВ 2 20 км 10/10 1500 м
[Sc]
+16.3 +14.4 89 +16 +16 1021.8 972.7
09 20.03 С 4 20 км 10/10 1500 м
[Cu Sc]
+15.0 +12.9 87 +14 +14 1021.7 972.2
12 20.03 СВ 2 20 км 10/10 1230 м
[Sc]
+15.3 +13.4 88 +15 +15 1022.3 972.7 +14.5 +20.4 421 507
15 20.03 СВ 3 20 км 10/10 1500 м
[Sc]
+18.7 +11.3 62 +20 +20 1021.6 972.2
21 20.03 В 3 20 км 10/10 1500 м
[Cu Sc]
+19.7 +10.4 55 +21 +21 комфорт 1018.6 969.1
00 21.03 З 2 15 км осадки на расстоянии 10/10 1200 м
[Sc]
+17.2 +13.4 78 +18 +18 1020.7 970.9 +15.3 +21.7
03 21.03 З 1 20 км 10/10 1500 м
[Sc]
+16.1 +12.4 79 +17 +17 1021.0 971.4
06 21.03 З 1 20 км 10/10 1500 м
[Sc]
+16.2 +12.9 81 +17 +17 1019.3 969.9
09 21.03 штиль 0 20 км 10/10 1500 м
[Sc]
+14.9 +13.0 88 +15 +15 1018.2 968.7
12 21.03 Ю 1 20 км 9/9 1350 м
[Sc]
+15.6 +13.5 87 +16 +16 1019.0 969.3 +14.9 +17.2
15 21.03 СВ 2 20 км 9/9 1500 м
[Sc]
+18.4 +10.9 62 +19 +21 1017.9 968.4
18 21.03 ЮЗ 2 20 км 8/8 1500 м
[Cu Sc]
+21.9 +11.3 51 +24 +27 комфорт 1013.6 964.6
21 21.03 З 2 20 км 9/9 1500 м
[Sc]
+22.5 +11.6 50 +25 +25 комфорт 1011.4 962.5
00 22.03 В 1 20 км 10/10 1500 м
[Sc]
+20.0 +15.1 73 +23 +23 комфорт 1012.6 963.5 +14.5 +23.5
03 22.03 штиль 0 20 км 8/8 1500 м
[Sc]
+19.4 +15.5 78 +21 +21 комфорт 1014.5 965.4
06 22.03 Ю 1 20 км 3/3 1500 м
[Sc]
+16.9 +14.0 83 +18 +18 1014.1 965.1
09 22.03 Ю 2 20 км ясно +13.3 +12.0 92 +13 +13 1013.8 964.6
12 22.03 ЮЗ 4 20 км ясно +14.8 +11.9 83 +14 +15 1015.9 966.5 +12.5 +20.0
15 22.03 ЮЗ 4 20 км 3/3 1500 м
[Cu med, cong]
+19.8 +13.0 65 +22 +29 комфорт 1016.0 967.0
18 22.03 Ю 3 20 км 4/4 1500 м
[Cu hum]
+24.2 +14.0 53 +27 +34 жарко 1013.4 964.7
21 22.03 штиль 0 20 км 3/3 1500 м
[Sc]
+26.2 +14.9 50 +29 +31 жарко 1012.0 963.2
00 23.03 З 3 20 км 5/5 1500 м
[Sc]
+20.2 +16.0 77 +23 +23 комфорт 1013.4 964.2 +14.8 +26.2
03 23.03 З 1 20 км ясно +19.0 +14.7 76 +21 +21 комфорт 1014.6 965.6
06 23.03 З 2 20 км ясно +15.3 +13.4 88 +15 +15 1013.6 964.7
09 23.03 ЮЗ 2 20 км ясно +14.7 +12.8 88 +15 +15 1012.6 963.8
12 23.03 Ю 2 20 км ясно +18.0 +13.9 77 +19 +21 1013.1 964.1 +13.0 +20.2
15 23.03 С 2 20 км ясно +22.0 +16.2 70 +26 +41 душно 1012.1 963.4
18 23.03 СВ 2 20 км ясно +28.0 +16.1 48 +31 +46 душно 1008.3 959.9
21 23.03 В 2 20 км 1/1 1500 м
[Sc]
+29.9 +17.2 46 +34 +36 очень
душно
1006.9 958.7
00 24.03 З 3 20 км ясно +22.3 +18.1 77 +27 +27 душно 1008.8 960.2 +18.0 +30.5

 

Местоположение метеостанции Ла-Риоха (Аргентина): широта -29.38 долгота -66.81 высота над уровнем моря 429 м.

В архиве по умолчанию представлена погода в Ла-Риохе за последнюю неделю. Архивные данные за месяц целиком и за предыдущие месяцы, начиная с января 2011 года, Вы можете получить, выбрав интересующий диапазон дат из раскрывающегося списка и нажав кнопку "Ввод!".


*Определитесь, кто Вы:
робот инопланетянин человек

Внимание! Время в таблицах - всемирное. Для получения местного времени необходимо прибавить поправку, которая равна -3 ч.

Смотрите также архив погоды в соседних городах и на ближайших метеорологических станциях:

Погода в Чамикале (Аргентина) (120 км)
Погода в Сан-Фернандо-дель-Валье-де-Катамарке (Аргентина) (134 км)
Погода в Сан-Хуане (Аргентина) (272 км)
Погода в Сантьяго-дель-Эстеро (Аргентина) (304 км)
Погода в Вилла де Мария дель Рио Секо (Аргентина) (308 км)
Погода в Вилла Долорес (Аргентина) (328 км)
Погода в Сан-Мигель-де-Тукумане (Аргентина) (328 км)
Погода в Кордове (Аргентина) (329 км)
Погода в Пиларе (Аргентина) (378 км)
Погода в Викунье (Чили) (383 км)

Пояснения к столбцам:

Ветер - указаны скорость ветра в м/с - средняя за 10 мин, порывы в срок и между сроками (в фигурных скобках) и направление, откуда дует ветер: С - северный, СВ - северо-восточный, В - восточный, ЮВ - юго-восточный, Ю - южный, ЮЗ - юго-западный, З - западный, СЗ - северо-западный.
Видимость - горизонтальная дальность видимости в метрах или километрах. При видимости от 1 до 10 км при отсутствии осадков обычно наблюдается дымка, при ухудшении видимости до 1 км и менее - туман. В сухую погоду видимость может ухудшаться дымом, пылью или мглою.
Явления - указаны атмосферные явления, наблюдавшиеся в срок или в последний час перед сроком; фигурными скобками обозначены явления, наблюдавшиеся между сроками (за 1-3 часа до срока); квадратными скобками обозначены град или гололедные отложения с указанием их диаметра в мм.
Облачность - указаны через наклонную черту общая и нижняя облачность в баллах и высота нижней границы облаков в метрах; квадратными скобками обозначены формы облаков: Ci - перистые, Cs - перисто-слоистые, Cc - перисто-кучевые, Ac - высококучевые, As - высокослоистые, Sc - слоисто-кучевые, Ns - слоисто-дождевые, Cu - кучевые, Cb - кучево-дождевые. Подробнее классификацию облаков см. в Атласе облаков (PDF).
T - Температура воздуха - температура, измеренная на высоте 2 м над землей.
Td - Температура точки росы - температура, при понижении до которой содержащийся в воздухе водяной пар достигнет насыщения.
f - Относительная влажность воздуха - влажноcть воздуха, измеренная на высоте 2 м над землей.
Te - Эффективная температура - температура, которую ощущает одетый по сезону человек в тени. Характеристика душности погоды. При расчете учитывается влияние влажности воздуха и скорости ветра на теплоощущения человека.
Tes - Эффективная температура на солнце - температура, которую ощущает человек, с поправкой на солнечный нагрев. Характеристика знойности погоды. Зависит от высоты солнца над горизонтом, облачности и скорости ветра. Ночью, в пасмурную погоду, а также при ветре 12 м/с и более поправка равна нулю.
P - Атмосферное давление - приведенное к уровню моря атмосферное давление.
Po - Атмосферное давление - измеренное на уровне метеостанции атмосферное давление.
Tmin - Минимальная температура - минимум температуры воздуха на высоте 2 м над землей.
Tmax - Максимальная температура - максимум температуры воздуха на высоте 2 м над землей.
R - Количество осадков - Количество выпавших осадков за период времени, мм. При наведении курсора мыши на число - период времени, за который выпало указанное количество осадков.
R24 - Количество осадков - Количество выпавших осадков за 24 часа, мм.
S - Снежный покров - Высота снежного покрова, см. При наведении курсора мыши на число - состояние снежного покрова и степень покрытия местности в баллах.